Simultaneous Nadir Overpasses (SNOs) Predictions

Prediction of SNOs between AQUA and METOP-B Satellite Orbit:

Table of predicted SNOs for the next 14.0 days since TLE Epoch: 6/28/2013
Index Date (AQUA) Time (AQUA) Lat,Lon (AQUA) SZA (AQUA ) Date (METOP-B) Time (METOP-B) Lat,Lon (METOP-B) SZA (METOP-B ) Distance(km) Time Diff (sec)
1 06/28/2013 17:28:25 -73.20, 93.52 130.06 06/28/2013 17:27:17 -73.15, 91.31 130.01 71.31 68
2 06/28/2013 18:18:03 73.73, -99.97 50.51 06/28/2013 18:17:46 73.72,-100.07 50.51 3.42 17
3 06/28/2013 19:07:30 -73.82, 67.48 129.39 06/28/2013 19:08:25 -73.83, 67.51 129.39 1.29 55
4 07/01/2013 13:02:45 -73.41, 159.52 129.66 07/01/2013 13:01:35 -73.36, 158.18 129.64 42.97 70
5 07/01/2013 13:52:20 73.78, -33.65 50.75 07/01/2013 13:52:07 73.77, -33.54 50.74 3.81 13
6 07/01/2013 14:41:46 -73.82, 133.92 129.21 07/01/2013 14:42:47 -73.83, 133.94 129.21 2.04 61
7 07/04/2013 08:37:06 -73.68,-134.63 129.14 07/04/2013 08:35:52 -73.61,-134.83 129.18 9.68 74
8 07/04/2013 09:26:35 73.75, 32.85 50.94 07/04/2013 09:26:29 73.77, 32.86 50.96 2.11 6
9 07/04/2013 10:16:02 -73.83,-159.68 128.97 07/04/2013 10:17:09 -73.84,-159.64 128.97 1.76 67
10 07/07/2013 04:11:21 -73.71, -68.26 128.83 07/07/2013 04:10:11 -73.72, -68.18 128.81 2.59 70
11 07/07/2013 05:00:50 73.78, 99.22 51.26 07/07/2013 05:00:50 73.76, 99.26 51.24 2.36 0
12 07/07/2013 05:50:17 -73.86, -93.31 128.66 07/07/2013 05:51:30 -73.84, -93.22 128.68 3.31 73
13 07/09/2013 23:45:36 -73.70, -1.80 128.50 07/09/2013 23:44:33 -73.72, -1.77 128.47 2.51 63
14 07/10/2013 00:35:05 73.77, 165.67 51.59 07/10/2013 00:35:12 73.76, 165.65 51.57 2.10 7




NCC Satellite Simultaneous Nadir Overpasses (SNOs) Prediction Service
